Location: Tamazert
(32.6352°N, 5.2072°W)
Time: 16:36:32
(UTC+00:00)

IRS-P3 - Pass Details

Date: 22 May 2022
Orbit: 813 x 819 km, 98.9° (Epoch: 07 July)

Event Time Altitude Azimuth Distance (km) Brightness Sun altitude
Rises 03:36:08 0° 17° (NNE) 3,350 8.3 -18.9°
Reaches altitude 10° 03:38:31 10° 21° (NNE) 2,413 7.5 -18.5°
Maximum altitude 03:43:48 63° 102° (ESE) 909 4.5 -17.6°
Enters shadow 03:48:32 13° 182° (S) 2,193 6.0 -16.9°
